Tracking 19638 objects as of 19-Apr-2019
HD Live streaming from Space Station
objects crossing your sky now

DICE 1

Track DICE 1 now!
10-day predictions
DICE 1 is classified as:


NORAD ID: 37851
Int'l Code: 2011-061B
Perigee: 437.5 km
Apogee: 690.8 km
Inclination: 101.7 °
Period: 95.8 minutes
Semi major axis: 6935 km
RCS: 0.0809 m2 (small)
Launch date: October 28, 2011
Source: United States (US)
Launch site: AIR FORCE WESTERN TEST RANGE (AFWTR)
aabbcc
Your satellite tracking list
Your tracking list is empty




NASA's NSSDC Master Catalog

Two Line Element Set (TLE):
1 37851U 11061B   19107.80374958 +.00001022 +00000-0 +61023-4 0  9996
2 37851 101.7453 325.7905 0182632 281.9044 076.1741 15.03216035407089
Source of the keplerian elements: AFSPC